New Iberia, LA

4:48 AM CDT on May 21, 2018 (GMT -0500)
Acadiana Regional

Weather History for KARA - November, 2013

Change the Weather History Date:

Friday, November 8, 2013

  Actual Average Record
Temperature  
Mean Temperature 55 °F 63 °F  
Max Temperature 67 °F 75 °F 84 °F (1986)
Min Temperature 43 °F 52 °F 29 °F (1991)
Degree Days  
Heating Degree Days 10 3  
Month to date heating degree days 26 24  
Since 1 July heating degree days 32 58  
Cooling Degree Days 0 2  
Month to date cooling degree days 18 19  
Year to date cooling degree days 3150 2764  
Growing Degree Days 5 (Base 50)    
Moisture  
Dew Point 39 °F    
Average Humidity 59    
Maximum Humidity 86    
Minimum Humidity 31    
Precipitation  
Precipitation 0.00 in 0.10 in 1.00 in (1953)
Month to date precipitation 0.00 0.79  
Year to date precipitation 61.84 51.23  
Sea Level Pressure  
Sea Level Pressure 30.28 in    
Wind  
Wind Speed 8 mph (NE)    
Max Wind Speed 18 mph    
Max Gust Speed 28 mph    
Visibility 10 miles    
Events      
T = Trace of Precipitation, MM = Missing Value Source: NWS Daily Summary

Daily Weather History Graph

Daily Weather History Graph

Search for Another Location

Airport or City:

Astronomy

Nov. 08, 2013 Rise Set
Actual Time 6:27 AM CST 5:15 PM CST
Civil Twilight 6:02 AM CST 5:40 PM CST
Nautical Twilight 5:33 AM CST 6:08 PM CST
Astronomical Twilight 5:05 AM CST 6:36 PM CST
Moon 11:22 AM CST (11/8) 10:34 PM CST (11/8)
Length of Visible Light 11h 37m
Length of Day
10h 47m
Waxing Crescent, 33% of the Moon is Illuminated
Nov 8
Waxing Crescent
Nov 9
First Quarter
Nov 17
Full
Nov 25
Last Quarter
Dec 2
New

Hourly Weather History & Observations

Time (CST) Temp. Windchill Dew Point Humidity Pressure Visibility Wind Dir Wind Speed Gust Speed Precip Events Conditions
12:53 AM 50.0 °F - 39.9 °F 68% 30.31 in 10.0 mi NNE 11.5 mph - N/A   Clear
1:53 AM 48.0 °F - 39.9 °F 74% 30.31 in 10.0 mi NNE 12.7 mph - N/A   Clear
2:53 AM 48.0 °F - 39.9 °F 74% 30.31 in 10.0 mi NNE 8.1 mph - N/A   Clear
3:53 AM 45.0 °F 40.6 °F 39.0 °F 80% 30.32 in 10.0 mi North 8.1 mph - N/A   Clear
4:53 AM 44.1 °F 39.5 °F 37.9 °F 79% 30.32 in 10.0 mi North 8.1 mph - N/A   Clear
5:53 AM 44.1 °F 40.1 °F 37.9 °F 79% 30.33 in 10.0 mi NNE 6.9 mph - N/A   Clear
6:53 AM 46.0 °F 41.4 °F 39.0 °F 76% 30.33 in 10.0 mi NE 9.2 mph - N/A   Clear
7:53 AM 48.9 °F - 39.0 °F 69% 30.35 in 10.0 mi NE 11.5 mph - N/A   Clear
8:53 AM 55.0 °F - 37.0 °F 51% 30.35 in 10.0 mi ENE 12.7 mph - N/A   Clear
9:53 AM 59.0 °F - 34.0 °F 39% 30.35 in 10.0 mi ENE 18.4 mph 27.6 mph N/A   Clear
10:53 AM 63.0 °F - 34.0 °F 34% 30.33 in 10.0 mi ENE 13.8 mph 24.2 mph 0.00 in   Clear
11:53 AM 64.0 °F - 34.0 °F 33% 30.29 in 10.0 mi ENE 16.1 mph 21.9 mph N/A   Clear
12:53 PM 64.9 °F - 34.0 °F 32% 30.27 in 10.0 mi NE 10.4 mph - N/A   Clear
1:53 PM 63.0 °F - 35.1 °F 35% 30.24 in 10.0 mi NE 10.4 mph - N/A   Clear
2:53 PM 66.0 °F - 35.1 °F 32% 30.23 in 10.0 mi NE 8.1 mph - N/A   Clear
3:53 PM 66.0 °F - 37.0 °F 34% 30.23 in 9.0 mi North - - N/A   Clear
4:53 PM 62.1 °F - 39.0 °F 43% 30.23 in 10.0 mi NNE 6.9 mph - N/A   Clear
5:53 PM 55.9 °F - 44.1 °F 64% 30.23 in 10.0 mi North 3.5 mph - N/A   Clear
6:53 PM 54.0 °F - 42.1 °F 64% 30.23 in 10.0 mi NE 3.5 mph - N/A   Clear
7:53 PM 52.0 °F - 43.0 °F 71% 30.23 in 10.0 mi NE 4.6 mph - N/A   Clear
8:53 PM 52.0 °F - 43.0 °F 71% 30.23 in 10.0 mi NE 4.6 mph - N/A   Clear
9:53 PM 48.0 °F - 42.1 °F 80% 30.24 in 10.0 mi Calm Calm - N/A   Clear
10:53 PM 48.0 °F - 45.0 °F 89% 30.22 in 10.0 mi Calm Calm - N/A   Clear
11:53 PM 48.0 °F - 44.1 °F 86% 30.22 in 10.0 mi Calm Calm - N/A   Clear